Data supplied by UK-AIR on 8/11/2015
All Data GMT hour ending 
Status: R =Ratified P=Provisional,P*=As supplied
,,Ladybower,,,,,,,,,,,,,,,,,,,,,,,
Date,time,"Nitric oxide",status,unit,"Nitrogen dioxide",status,unit,"Nitrogen oxides as nitrogen dioxide",status,unit,"Ozone",status,unit,"Sulphur dioxide",status,unit
 
01-01-2013,01:00,3.03343,R,ugm-3,12.74044,R,ugm-3,17.39164,R,ugm-3,66.12419,R,ugm-3,1.92827,R,ugm-3
01-01-2013,02:00,3.19309,R,ugm-3,13.94468,R,ugm-3,18.84068,R,ugm-3,68.30283,R,ugm-3,2.21830,R,ugm-3
01-01-2013,03:00,2.19525,R,ugm-3,12.81805,R,ugm-3,16.18405,R,ugm-3,67.05552,R,ugm-3,2.45867,R,ugm-3
01-01-2013,04:00,2.11542,R,ugm-3,13.54433,R,ugm-3,16.78793,R,ugm-3,66.65638,R,ugm-3,1.87993,R,ugm-3
01-01-2013,05:00,1.99568,R,ugm-3,12.51970,R,ugm-3,15.57970,R,ugm-3,69.35058,R,ugm-3,1.95244,R,ugm-3
01-01-2013,06:00,1.55663,R,ugm-3,11.68298,R,ugm-3,14.06978,R,ugm-3,69.69982,R,ugm-3,2.45801,R,ugm-3
01-01-2013,07:00,0.91801,R,ugm-3,11.03226,R,ugm-3,12.43986,R,ugm-3,71.19660,R,ugm-3,2.16996,R,ugm-3
01-01-2013,08:00,1.19741,R,ugm-3,11.69111,R,ugm-3,13.52711,R,ugm-3,68.55230,R,ugm-3,2.09679,R,ugm-3
01-01-2013,09:00,0.99784,R,ugm-3,11.39228,R,ugm-3,12.92228,R,ugm-3,68.10326,R,ugm-3,1.95244,R,ugm-3
01-01-2013,10:00,0.87810,R,ugm-3,9.94596,R,ugm-3,11.29236,R,ugm-3,66.35703,R,ugm-3,1.88059,R,ugm-3
01-01-2013,11:00,1.39698,R,ugm-3,11.44536,R,ugm-3,13.58736,R,ugm-3,65.35918,R,ugm-3,1.59188,R,ugm-3
01-01-2013,12:00,1.39698,R,ugm-3,10.90173,R,ugm-3,13.04373,R,ugm-3,63.66283,R,ugm-3,1.37436,R,ugm-3
01-01-2013,13:00,1.39698,R,ugm-3,10.84148,R,ugm-3,12.98348,R,ugm-3,63.41337,R,ugm-3,1.37436,R,ugm-3
01-01-2013,14:00,1.35706,R,ugm-3,9.33300,R,ugm-3,11.41380,R,ugm-3,63.51315,R,ugm-3,2.02495,R,ugm-3
01-01-2013,15:00,1.47680,R,ugm-3,9.32965,R,ugm-3,11.59405,R,ugm-3,63.76262,R,ugm-3,1.88059,R,ugm-3
01-01-2013,16:00,1.43689,R,ugm-3,9.21012,R,ugm-3,11.41332,R,ugm-3,64.76047,R,ugm-3,1.66373,R,ugm-3
01-01-2013,17:00,1.27724,R,ugm-3,9.69638,R,ugm-3,11.65478,R,ugm-3,64.26154,R,ugm-3,1.59122,R,ugm-3
01-01-2013,18:00,1.11758,R,ugm-3,10.42360,R,ugm-3,12.13720,R,ugm-3,62.81466,R,ugm-3,1.30118,R,ugm-3
01-01-2013,19:00,1.39698,R,ugm-3,12.04875,R,ugm-3,14.19075,R,ugm-3,61.91659,R,ugm-3,2.09745,R,ugm-3
01-01-2013,20:00,0.87810,R,ugm-3,11.93878,R,ugm-3,13.28518,R,ugm-3,61.76692,R,ugm-3,2.09745,R,ugm-3
01-01-2013,21:00,1.03775,R,ugm-3,10.90938,R,ugm-3,12.50058,R,ugm-3,62.91444,R,ugm-3,1.88059,R,ugm-3
01-01-2013,22:00,1.63646,R,ugm-3,10.95671,R,ugm-3,13.46591,R,ugm-3,59.97079,R,ugm-3,1.66373,R,ugm-3
01-01-2013,23:00,1.99568,R,ugm-3,10.04397,R,ugm-3,13.10397,R,ugm-3,61.31788,R,ugm-3,1.59122,R,ugm-3
01-01-2013,24:00,2.07551,R,ugm-3,11.12932,R,ugm-3,14.31172,R,ugm-3,58.62369,R,ugm-3,1.88059,R,ugm-3
02-01-2013,01:00,2.82056,R,ugm-3,11.77845,R,ugm-3,16.10325,R,ugm-3,58.07487,R,ugm-3,1.64089,R,ugm-3
02-01-2013,02:00,3.99136,R,ugm-3,12.31841,R,ugm-3,18.43841,R,ugm-3,54.18326,R,ugm-3,1.25506,R,ugm-3
02-01-2013,03:00,3.15317,R,ugm-3,10.08079,R,ugm-3,14.91559,R,ugm-3,59.92089,R,ugm-3,0.94063,R,ugm-3
02-01-2013,04:00,3.47248,R,ugm-3,9.77192,R,ugm-3,15.09632,R,ugm-3,59.62154,R,ugm-3,1.30318,R,ugm-3
02-01-2013,05:00,3.43257,R,ugm-3,9.77335,R,ugm-3,15.03655,R,ugm-3,59.07272,R,ugm-3,0.79627,R,ugm-3
02-01-2013,06:00,3.35274,R,ugm-3,10.49915,R,ugm-3,15.63995,R,ugm-3,57.02713,R,ugm-3,1.52004,R,ugm-3
02-01-2013,07:00,3.51240,R,ugm-3,11.16087,R,ugm-3,16.54647,R,ugm-3,54.33293,R,ugm-3,0.72443,R,ugm-3
02-01-2013,08:00,3.87162,R,ugm-3,14.71621,R,ugm-3,20.65261,R,ugm-3,51.33938,R,ugm-3,2.09945,R,ugm-3
02-01-2013,09:00,2.87378,R,ugm-3,13.34734,R,ugm-3,17.75374,R,ugm-3,56.22885,R,ugm-3,3.76384,R,ugm-3
02-01-2013,10:00,0.91801,R,ugm-3,8.67701,R,ugm-3,10.08461,R,ugm-3,62.41552,R,ugm-3,1.37502,R,ugm-3
02-01-2013,11:00,0.99784,R,ugm-3,11.51373,R,ugm-3,13.04373,R,ugm-3,61.11831,R,ugm-3,,,
02-01-2013,12:00,4.15101,R,ugm-3,14.04588,R,ugm-3,20.41068,R,ugm-3,57.82541,R,ugm-3,,,
02-01-2013,13:00,3.91153,R,ugm-3,10.42838,R,ugm-3,16.42598,R,ugm-3,59.92089,R,ugm-3,0.67498,R,ugm-3
02-01-2013,14:00,2.63430,R,ugm-3,12.50632,R,ugm-3,16.54552,R,ugm-3,59.57165,R,ugm-3,2.02694,R,ugm-3
02-01-2013,15:00,1.87594,R,ugm-3,14.45468,R,ugm-3,17.33108,R,ugm-3,58.07487,R,ugm-3,3.11259,R,ugm-3
02-01-2013,16:00,2.51456,R,ugm-3,21.50654,R,ugm-3,25.36214,R,ugm-3,45.70153,R,ugm-3,1.81008,R,ugm-3
02-01-2013,17:00,2.31499,R,ugm-3,32.07884,R,ugm-3,35.62844,R,ugm-3,37.16991,R,ugm-3,1.52004,R,ugm-3
02-01-2013,18:00,3.95145,R,ugm-3,28.30165,R,ugm-3,34.36045,R,ugm-3,40.51271,R,ugm-3,1.73757,R,ugm-3
02-01-2013,19:00,4.86946,R,ugm-3,24.35808,R,ugm-3,31.82448,R,ugm-3,42.20906,R,ugm-3,1.95443,R,ugm-3
02-01-2013,20:00,6.90505,R,ugm-3,27.87947,R,ugm-3,38.46707,R,ugm-3,34.92475,R,ugm-3,0.21753,R,ugm-3
02-01-2013,21:00,8.50160,R,ugm-3,26.94091,R,ugm-3,39.97651,R,ugm-3,36.97034,R,ugm-3,1.15749,R,ugm-3
02-01-2013,22:00,9.22004,R,ugm-3,25.23496,R,ugm-3,39.37216,R,ugm-3,35.07443,R,ugm-3,2.09879,R,ugm-3
02-01-2013,23:00,10.01831,R,ugm-3,18.57611,R,ugm-3,33.93731,R,ugm-3,40.61250,R,ugm-3,2.75004,R,ugm-3
02-01-2013,24:00,6.74540,R,ugm-3,13.38893,R,ugm-3,23.73173,R,ugm-3,44.30454,R,ugm-3,3.18510,R,ugm-3
03-01-2013,01:00,5.16216,R,ugm-3,8.91289,R,ugm-3,16.82809,R,ugm-3,53.81738,R,ugm-3,2.79838,R,ugm-3
03-01-2013,02:00,7.39732,R,ugm-3,13.21474,R,ugm-3,24.55714,R,ugm-3,46.54970,R,ugm-3,0.67587,R,ugm-3
03-01-2013,03:00,8.62134,R,ugm-3,12.92850,R,ugm-3,26.14770,R,ugm-3,44.95314,R,ugm-3,1.44820,R,ugm-3
03-01-2013,04:00,7.34410,R,ugm-3,9.81447,R,ugm-3,21.07527,R,ugm-3,48.49551,R,ugm-3,2.46000,R,ugm-3
03-01-2013,05:00,11.09598,R,ugm-3,13.66290,R,ugm-3,30.67650,R,ugm-3,44.95314,R,ugm-3,0.43439,R,ugm-3
03-01-2013,06:00,8.34194,R,ugm-3,14.68513,R,ugm-3,27.47593,R,ugm-3,45.20261,R,ugm-3,0.79627,R,ugm-3
03-01-2013,07:00,7.14453,R,ugm-3,16.27968,R,ugm-3,27.23448,R,ugm-3,47.19831,R,ugm-3,1.37502,R,ugm-3
03-01-2013,08:00,6.14669,R,ugm-3,15.33395,R,ugm-3,24.75875,R,ugm-3,52.93594,R,ugm-3,1.80875,R,ugm-3
03-01-2013,09:00,5.22868,R,ugm-3,17.16469,R,ugm-3,25.18189,R,ugm-3,53.58455,R,ugm-3,2.31631,R,ugm-3
03-01-2013,10:00,6.54583,R,ugm-3,16.77502,R,ugm-3,26.81182,R,ugm-3,52.23745,R,ugm-3,1.80941,R,ugm-3
03-01-2013,11:00,6.74540,R,ugm-3,18.28063,R,ugm-3,28.62343,R,ugm-3,52.58670,R,ugm-3,1.44753,R,ugm-3
03-01-2013,12:00,8.14237,R,ugm-3,17.64855,R,ugm-3,30.13335,R,ugm-3,51.78842,R,ugm-3,1.44753,R,ugm-3
03-01-2013,13:00,12.17365,R,ugm-3,18.65357,R,ugm-3,37.31957,R,ugm-3,43.10712,R,ugm-3,1.66506,R,ugm-3
03-01-2013,14:00,7.10462,R,ugm-3,15.25410,R,ugm-3,26.14770,R,ugm-3,45.75142,R,ugm-3,3.18510,R,ugm-3
03-01-2013,15:00,10.41745,R,ugm-3,14.82427,R,ugm-3,30.79747,R,ugm-3,47.14841,R,ugm-3,0.21753,R,ugm-3
03-01-2013,16:00,14.36890,R,ugm-3,15.83024,R,ugm-3,37.86224,R,ugm-3,47.04863,R,ugm-3,0.77166,R,ugm-3
03-01-2013,17:00,17.52207,R,ugm-3,17.81972,R,ugm-3,44.68652,R,ugm-3,39.81422,R,ugm-3,0.93996,R,ugm-3
03-01-2013,18:00,9.81875,R,ugm-3,15.19912,R,ugm-3,30.25432,R,ugm-3,45.05293,R,ugm-3,1.08498,R,ugm-3
03-01-2013,19:00,3.99136,R,ugm-3,12.53978,R,ugm-3,18.65978,R,ugm-3,50.24175,R,ugm-3,1.08565,R,ugm-3
03-01-2013,20:00,5.74756,R,ugm-3,12.98683,R,ugm-3,21.79963,R,ugm-3,49.99229,R,ugm-3,1.15749,R,ugm-3
03-01-2013,21:00,6.98488,R,ugm-3,13.26319,R,ugm-3,23.97319,R,ugm-3,47.94669,R,ugm-3,0.72377,R,ugm-3
03-01-2013,22:00,7.34410,R,ugm-3,13.61891,R,ugm-3,24.87971,R,ugm-3,47.59745,R,ugm-3,0.86812,R,ugm-3
03-01-2013,23:00,9.89857,R,ugm-3,13.20438,R,ugm-3,28.38198,R,ugm-3,44.10497,R,ugm-3,1.08565,R,ugm-3
03-01-2013,24:00,6.14669,R,ugm-3,11.16757,R,ugm-3,20.59237,R,ugm-3,51.53895,R,ugm-3,0.86812,R,ugm-3
04-01-2013,01:00,4.17139,R,ugm-3,9.62689,R,ugm-3,16.02293,R,ugm-3,52.61996,R,ugm-3,0.86923,R,ugm-3
04-01-2013,02:00,3.80177,R,ugm-3,8.58330,R,ugm-3,14.41260,R,ugm-3,58.52390,R,ugm-3,0.77255,R,ugm-3
04-01-2013,03:00,7.08872,R,ugm-3,12.56130,R,ugm-3,23.43052,R,ugm-3,51.18971,R,ugm-3,1.01380,R,ugm-3
04-01-2013,04:00,10.25686,R,ugm-3,13.80251,R,ugm-3,29.52948,R,ugm-3,47.24820,R,ugm-3,0.94196,R,ugm-3
04-01-2013,05:00,10.17766,R,ugm-3,15.85654,R,ugm-3,31.46206,R,ugm-3,46.00089,R,ugm-3,1.23200,R,ugm-3
04-01-2013,06:00,12.31615,R,ugm-3,15.47595,R,ugm-3,34.36045,R,ugm-3,44.30454,R,ugm-3,1.30384,R,ugm-3
04-01-2013,07:00,11.16770,R,ugm-3,15.72697,R,ugm-3,32.85053,R,ugm-3,47.74712,R,ugm-3,1.15838,R,ugm-3
04-01-2013,08:00,9.06881,R,ugm-3,17.91917,R,ugm-3,31.82448,R,ugm-3,46.44992,R,ugm-3,1.44820,R,ugm-3
04-01-2013,09:00,10.41527,R,ugm-3,17.36454,R,ugm-3,33.33440,R,ugm-3,45.40218,R,ugm-3,1.01447,R,ugm-3
04-01-2013,10:00,6.37589,R,ugm-3,13.65382,R,ugm-3,23.43004,R,ugm-3,55.58025,R,ugm-3,1.37569,R,ugm-3
04-01-2013,11:00,2.45531,R,ugm-3,11.51325,R,ugm-3,15.27801,R,ugm-3,61.46756,R,ugm-3,1.73890,R,ugm-3
04-01-2013,12:00,3.84137,R,ugm-3,17.41953,R,ugm-3,23.30955,R,ugm-3,52.68648,R,ugm-3,4.27407,R,ugm-3
04-01-2013,13:00,6.60030,R,ugm-3,60.25076,R,ugm-3,70.37108,R,ugm-3,50.15859,R,ugm-3,,,
04-01-2013,14:00,3.60376,R,ugm-3,20.25959,R,ugm-3,25.78528,R,ugm-3,53.63444,R,ugm-3,6.59238,R,ugm-3
04-01-2013,15:00,5.58385,R,ugm-3,28.69706,R,ugm-3,37.25885,R,ugm-3,41.61035,R,ugm-3,12.09778,R,ugm-3
04-01-2013,16:00,8.07876,R,ugm-3,31.45345,R,ugm-3,43.84072,R,ugm-3,51.38928,R,ugm-3,7.60685,R,ugm-3
04-01-2013,17:00,4.15819,R,ugm-3,13.19003,R,ugm-3,19.56583,R,ugm-3,58.37423,R,ugm-3,1.44953,R,ugm-3
04-01-2013,18:00,3.64336,R,ugm-3,9.26893,R,ugm-3,14.85534,R,ugm-3,59.77122,R,ugm-3,0.79761,R,ugm-3
04-01-2013,19:00,3.48496,R,ugm-3,12.59142,R,ugm-3,17.93495,R,ugm-3,55.77982,R,ugm-3,1.23200,R,ugm-3
04-01-2013,20:00,3.68297,R,ugm-3,22.19122,R,ugm-3,27.83835,R,ugm-3,46.15056,R,ugm-3,7.24497,R,ugm-3
04-01-2013,21:00,3.52456,R,ugm-3,16.39538,R,ugm-3,21.79963,R,ugm-3,57.22670,R,ugm-3,1.66572,R,ugm-3
04-01-2013,22:00,2.53451,R,ugm-3,22.50295,R,ugm-3,26.38915,R,ugm-3,44.00519,R,ugm-3,5.57791,R,ugm-3
04-01-2013,23:00,4.07898,R,ugm-3,30.21941,R,ugm-3,36.47377,R,ugm-3,45.65164,R,ugm-3,8.11308,R,ugm-3
04-01-2013,24:00,2.97013,R,ugm-3,11.81064,R,ugm-3,16.36478,R,ugm-3,62.86455,R,ugm-3,1.30451,R,ugm-3
05-01-2013,01:00,2.28131,R,ugm-3,8.14916,R,ugm-3,11.64713,R,ugm-3,64.79373,R,ugm-3,0.77344,R,ugm-3
05-01-2013,02:00,2.75903,R,ugm-3,7.65765,R,ugm-3,11.88810,R,ugm-3,63.81251,R,ugm-3,0.96679,R,ugm-3
05-01-2013,03:00,3.54109,R,ugm-3,7.52282,R,ugm-3,12.95241,R,ugm-3,59.67143,R,ugm-3,1.01513,R,ugm-3
05-01-2013,04:00,4.81427,R,ugm-3,7.01648,R,ugm-3,14.39826,R,ugm-3,61.41767,R,ugm-3,1.08764,R,ugm-3
05-01-2013,05:00,5.09304,R,ugm-3,7.45429,R,ugm-3,15.10110,R,ugm-3,61.56735,R,ugm-3,1.16015,R,ugm-3
05-01-2013,06:00,3.73972,R,ugm-3,7.15801,R,ugm-3,12.89216,R,ugm-3,62.41552,R,ugm-3,0.87011,R,ugm-3
05-01-2013,07:00,2.54636,R,ugm-3,6.63829,R,ugm-3,10.54266,R,ugm-3,63.06412,R,ugm-3,0.79761,R,ugm-3
05-01-2013,08:00,2.06927,R,ugm-3,6.58665,R,ugm-3,9.75949,R,ugm-3,61.96649,R,ugm-3,0.36255,R,ugm-3
05-01-2013,09:00,2.74562,R,ugm-3,6.99545,R,ugm-3,11.20534,R,ugm-3,58.67358,R,ugm-3,0.58008,R,ugm-3
05-01-2013,10:00,3.54140,R,ugm-3,6.79942,R,ugm-3,12.22948,R,ugm-3,59.82111,R,ugm-3,0.87011,R,ugm-3
05-01-2013,11:00,3.34214,R,ugm-3,6.74348,R,ugm-3,11.86802,R,ugm-3,58.52390,R,ugm-3,1.16015,R,ugm-3
05-01-2013,12:00,2.66579,R,ugm-3,7.41907,R,ugm-3,11.50656,R,ugm-3,62.66498,R,ugm-3,0.72510,R,ugm-3
05-01-2013,13:00,1.67107,R,ugm-3,8.58282,R,ugm-3,11.14509,R,ugm-3,63.96219,R,ugm-3,0.50757,R,ugm-3
05-01-2013,14:00,0.67604,R,ugm-3,8.72291,R,ugm-3,9.75949,R,ugm-3,63.41337,R,ugm-3,0.21753,R,ugm-3
05-01-2013,15:00,1.27349,R,ugm-3,10.73869,R,ugm-3,12.69135,R,ugm-3,56.21222,R,ugm-3,0.87011,R,ugm-3
05-01-2013,16:00,3.02377,R,ugm-3,9.76188,R,ugm-3,14.39826,R,ugm-3,58.12476,R,ugm-3,0.29004,R,ugm-3
05-01-2013,17:00,4.61532,R,ugm-3,6.41787,R,ugm-3,13.49460,R,ugm-3,54.28304,R,ugm-3,1.52270,R,ugm-3
05-01-2013,18:00,5.88882,R,ugm-3,6.87496,R,ugm-3,15.90435,R,ugm-3,51.98799,R,ugm-3,1.16015,R,ugm-3
05-01-2013,19:00,5.25238,R,ugm-3,8.03154,R,ugm-3,16.08508,R,ugm-3,56.32863,R,ugm-3,1.01513,R,ugm-3
05-01-2013,20:00,3.50117,R,ugm-3,9.27084,R,ugm-3,14.63923,R,ugm-3,59.52175,R,ugm-3,0.79761,R,ugm-3
05-01-2013,21:00,4.13823,R,ugm-3,8.17355,R,ugm-3,14.51874,R,ugm-3,54.03358,R,ugm-3,1.01513,R,ugm-3
05-01-2013,22:00,4.29726,R,ugm-3,7.62848,R,ugm-3,14.21753,R,ugm-3,59.12261,R,ugm-3,1.16015,R,ugm-3
05-01-2013,23:00,3.62060,R,ugm-3,8.78650,R,ugm-3,14.33801,R,ugm-3,59.27229,R,ugm-3,1.81274,R,ugm-3
05-01-2013,24:00,3.06368,R,ugm-3,10.66458,R,ugm-3,15.36216,R,ugm-3,58.42412,R,ugm-3,1.52270,R,ugm-3
06-01-2013,01:00,4.34019,R,ugm-3,10.32049,R,ugm-3,16.97535,R,ugm-3,57.54268,R,ugm-3,1.83691,R,ugm-3
06-01-2013,02:00,7.88626,R,ugm-3,11.20853,R,ugm-3,23.30063,R,ugm-3,48.22942,R,ugm-3,,,
06-01-2013,03:00,8.89169,R,ugm-3,12.72912,R,ugm-3,26.36286,R,ugm-3,47.34798,R,ugm-3,-0.19336,R,ugm-3
06-01-2013,04:00,7.70083,R,ugm-3,13.83455,R,ugm-3,25.64232,R,ugm-3,49.59315,R,ugm-3,3.11791,R,ugm-3
06-01-2013,05:00,8.17699,R,ugm-3,15.56679,R,ugm-3,28.10467,R,ugm-3,47.79702,R,ugm-3,3.98802,R,ugm-3
06-01-2013,06:00,8.29642,R,ugm-3,13.88188,R,ugm-3,26.60288,R,ugm-3,46.89895,R,ugm-3,1.74023,R,ugm-3
06-01-2013,07:00,8.93129,R,ugm-3,11.28710,R,ugm-3,24.98155,R,ugm-3,41.90970,R,ugm-3,0.72510,R,ugm-3
06-01-2013,08:00,7.34379,R,ugm-3,9.75805,R,ugm-3,21.01838,R,ugm-3,47.34798,R,ugm-3,1.59521,R,ugm-3
06-01-2013,09:00,6.78781,R,ugm-3,7.36743,R,ugm-3,17.77525,R,ugm-3,44.55400,R,ugm-3,1.59521,R,ugm-3
06-01-2013,10:00,7.34348,R,ugm-3,7.59645,R,ugm-3,18.85629,R,ugm-3,46.35013,R,ugm-3,1.16015,R,ugm-3
06-01-2013,11:00,10.39999,R,ugm-3,10.20255,R,ugm-3,25.70273,R,ugm-3,50.89035,R,ugm-3,1.52270,R,ugm-3
06-01-2013,12:00,8.01858,R,ugm-3,13.52759,R,ugm-3,25.82258,R,ugm-3,44.95314,R,ugm-3,0.94262,R,ugm-3
06-01-2013,13:00,11.39253,R,ugm-3,15.37985,R,ugm-3,32.84814,R,ugm-3,41.71013,R,ugm-3,0.36255,R,ugm-3
06-01-2013,14:00,3.49338,R,ugm-3,10.85774,R,ugm-3,16.21418,R,ugm-3,49.59315,R,ugm-3,1.01513,R,ugm-3
06-01-2013,15:00,5.43823,R,ugm-3,14.00093,R,ugm-3,22.33943,R,ugm-3,46.54970,R,ugm-3,1.23266,R,ugm-3
06-01-2013,16:00,2.30220,R,ugm-3,11.72315,R,ugm-3,15.25314,R,ugm-3,56.42842,R,ugm-3,1.01513,R,ugm-3
06-01-2013,17:00,2.10388,R,ugm-3,11.36694,R,ugm-3,14.59285,R,ugm-3,51.73852,R,ugm-3,1.23266,R,ugm-3
06-01-2013,18:00,2.61964,R,ugm-3,10.57613,R,ugm-3,14.59285,R,ugm-3,57.37638,R,ugm-3,2.03027,R,ugm-3
06-01-2013,19:00,3.01691,R,ugm-3,8.34567,R,ugm-3,12.97153,R,ugm-3,57.92519,R,ugm-3,1.52270,R,ugm-3
06-01-2013,20:00,2.85819,R,ugm-3,8.58856,R,ugm-3,12.97105,R,ugm-3,54.88175,R,ugm-3,1.01513,R,ugm-3
06-01-2013,21:00,0.91302,R,ugm-3,8.74921,R,ugm-3,10.14916,R,ugm-3,53.43487,R,ugm-3,1.59521,R,ugm-3
06-01-2013,22:00,1.03214,R,ugm-3,10.06788,R,ugm-3,11.65047,R,ugm-3,48.34583,R,ugm-3,1.52270,R,ugm-3
06-01-2013,23:00,3.17563,R,ugm-3,10.86491,R,ugm-3,15.73414,R,ugm-3,45.60175,R,ugm-3,0.87011,R,ugm-3
06-01-2013,24:00,1.27006,R,ugm-3,8.74204,R,ugm-3,10.68944,R,ugm-3,51.33938,R,ugm-3,1.30517,R,ugm-3
07-01-2013,01:00,1.21321,R,ugm-3,8.04461,R,ugm-3,9.90484,R,ugm-3,47.83028,R,ugm-3,0.96679,R,ugm-3
07-01-2013,02:00,1.31881,R,ugm-3,8.60115,R,ugm-3,10.62330,R,ugm-3,45.96762,R,ugm-3,1.06347,R,ugm-3
07-01-2013,03:00,1.70163,R,ugm-3,8.53358,R,ugm-3,11.14270,R,ugm-3,46.10067,R,ugm-3,1.23266,R,ugm-3
07-01-2013,04:00,1.82012,R,ugm-3,9.49078,R,ugm-3,12.28160,R,ugm-3,45.50196,R,ugm-3,1.30517,R,ugm-3
07-01-2013,05:00,1.34521,R,ugm-3,8.12239,R,ugm-3,10.18502,R,ugm-3,47.54755,R,ugm-3,1.37768,R,ugm-3
07-01-2013,06:00,0.79110,R,ugm-3,8.01290,R,ugm-3,9.22590,R,ugm-3,47.04863,R,ugm-3,0.58008,R,ugm-3
07-01-2013,07:00,0.87030,R,ugm-3,8.01146,R,ugm-3,9.34591,R,ugm-3,46.64949,R,ugm-3,0.14502,R,ugm-3
07-01-2013,08:00,0.94951,R,ugm-3,9.38798,R,ugm-3,10.84388,R,ugm-3,45.10282,R,ugm-3,0.50757,R,ugm-3
07-01-2013,09:00,1.22641,R,ugm-3,9.62179,R,ugm-3,11.50225,R,ugm-3,44.90325,R,ugm-3,1.08764,R,ugm-3
07-01-2013,10:00,1.30561,R,ugm-3,11.59692,R,ugm-3,13.59883,R,ugm-3,40.71228,R,ugm-3,1.16015,R,ugm-3
07-01-2013,11:00,1.70163,R,ugm-3,11.94834,R,ugm-3,14.55747,R,ugm-3,45.10282,R,ugm-3,1.45019,R,ugm-3
07-01-2013,12:00,0.98880,R,ugm-3,9.62705,R,ugm-3,11.14318,R,ugm-3,52.93594,R,ugm-3,1.16015,R,ugm-3
07-01-2013,13:00,1.14720,R,ugm-3,9.86324,R,ugm-3,11.62226,R,ugm-3,53.13551,R,ugm-3,0.72510,R,ugm-3
07-01-2013,14:00,2.01813,R,ugm-3,12.72147,R,ugm-3,15.81590,R,ugm-3,48.69508,R,ugm-3,0.65259,R,ugm-3
07-01-2013,15:00,4.23396,R,ugm-3,15.19529,R,ugm-3,21.68727,R,ugm-3,46.00089,R,ugm-3,1.45019,R,ugm-3
07-01-2013,16:00,2.29472,R,ugm-3,13.01648,R,ugm-3,16.53500,R,ugm-3,52.83616,R,ugm-3,1.45019,R,ugm-3
07-01-2013,17:00,1.06831,R,ugm-3,10.94333,R,ugm-3,12.58138,R,ugm-3,55.23100,R,ugm-3,0.87011,R,ugm-3
07-01-2013,18:00,0.55411,R,ugm-3,11.37173,R,ugm-3,12.22135,R,ugm-3,58.67358,R,ugm-3,1.16015,R,ugm-3
07-01-2013,19:00,0.59372,R,ugm-3,11.67055,R,ugm-3,12.58090,R,ugm-3,57.12691,R,ugm-3,1.81274,R,ugm-3
07-01-2013,20:00,0.07920,R,ugm-3,9.34400,R,ugm-3,9.46544,R,ugm-3,60.17036,R,ugm-3,0.94262,R,ugm-3
07-01-2013,21:00,0.94982,R,ugm-3,10.40543,R,ugm-3,11.86180,R,ugm-3,59.32218,R,ugm-3,1.08764,R,ugm-3
07-01-2013,22:00,1.34521,R,ugm-3,8.60099,R,ugm-3,10.66362,R,ugm-3,63.91229,R,ugm-3,1.59521,R,ugm-3
07-01-2013,23:00,1.10791,R,ugm-3,8.12573,R,ugm-3,9.82451,R,ugm-3,65.35918,R,ugm-3,1.01513,R,ugm-3
07-01-2013,24:00,1.89933,R,ugm-3,6.97298,R,ugm-3,9.88523,R,ugm-3,64.26154,R,ugm-3,0.43506,R,ugm-3
08-01-2013,01:00,1.47265,R,ugm-3,7.30448,R,ugm-3,9.56250,R,ugm-3,68.98470,R,ugm-3,0.48340,R,ugm-3
08-01-2013,02:00,0.63113,R,ugm-3,7.24009,R,ugm-3,8.20781,R,ugm-3,64.46111,R,ugm-3,0.67676,R,ugm-3
08-01-2013,03:00,0.82821,R,ugm-3,7.81448,R,ugm-3,9.08438,R,ugm-3,66.25724,R,ugm-3,1.16015,R,ugm-3
08-01-2013,04:00,1.10448,R,ugm-3,7.45062,R,ugm-3,9.14414,R,ugm-3,65.15961,R,ugm-3,1.74023,R,ugm-3
08-01-2013,05:00,2.05181,R,ugm-3,7.13363,R,ugm-3,10.27969,R,ugm-3,65.40907,R,ugm-3,1.23266,R,ugm-3
08-01-2013,06:00,2.95828,R,ugm-3,7.11833,R,ugm-3,11.65430,R,ugm-3,64.61079,R,ugm-3,1.08764,R,ugm-3
08-01-2013,07:00,1.36704,R,ugm-3,8.02421,R,ugm-3,10.12031,R,ugm-3,63.76262,R,ugm-3,,,
08-01-2013,08:00,1.14377,R,ugm-3,8.16733,R,ugm-3,9.92109,R,ugm-3,64.21165,R,ugm-3,1.06347,R,ugm-3
08-01-2013,09:00,2.83979,R,ugm-3,10.88595,R,ugm-3,15.24023,R,ugm-3,56.42842,R,ugm-3,0.58008,R,ugm-3
08-01-2013,10:00,2.87970,R,ugm-3,12.55795,R,ugm-3,16.97344,R,ugm-3,52.53680,R,ugm-3,1.88525,R,ugm-3
08-01-2013,11:00,5.08867,R,ugm-3,14.31076,R,ugm-3,22.11328,R,ugm-3,51.53895,R,ugm-3,0.72510,R,ugm-3
08-01-2013,12:00,1.85442,R,ugm-3,15.26558,R,ugm-3,18.10898,R,ugm-3,51.68863,R,ugm-3,0.94262,R,ugm-3
08-01-2013,13:00,1.69570,R,ugm-3,16.76402,R,ugm-3,19.36406,R,ugm-3,51.23960,R,ugm-3,1.16015,R,ugm-3
08-01-2013,14:00,2.95860,R,ugm-3,18.47332,R,ugm-3,23.00977,R,ugm-3,52.18756,R,ugm-3,1.37768,R,ugm-3
08-01-2013,15:00,2.56383,R,ugm-3,16.15011,R,ugm-3,20.08125,R,ugm-3,56.07917,R,ugm-3,1.52270,R,ugm-3
08-01-2013,16:00,1.45934,R,ugm-3,12.82331,R,ugm-3,15.06094,R,ugm-3,54.58240,R,ugm-3,1.30517,R,ugm-3
08-01-2013,17:00,3.03718,R,ugm-3,11.95791,R,ugm-3,16.61484,R,ugm-3,49.84261,R,ugm-3,1.45019,R,ugm-3
08-01-2013,18:00,9.66377,R,ugm-3,26.36094,R,ugm-3,41.17852,R,ugm-3,36.12217,R,ugm-3,0.79761,R,ugm-3
08-01-2013,19:00,12.26813,R,ugm-3,26.19264,R,ugm-3,45.00352,R,ugm-3,47.79702,R,ugm-3,1.16015,R,ugm-3
08-01-2013,20:00,9.19042,R,ugm-3,26.25002,R,ugm-3,40.34180,R,ugm-3,50.09207,R,ugm-3,1.01513,R,ugm-3
08-01-2013,21:00,9.74297,R,ugm-3,27.01645,R,ugm-3,41.95547,R,ugm-3,45.40218,R,ugm-3,0.94262,R,ugm-3
08-01-2013,22:00,7.73139,R,ugm-3,25.85748,R,ugm-3,37.71211,R,ugm-3,48.04648,R,ugm-3,1.23266,R,ugm-3
08-01-2013,23:00,4.41825,R,ugm-3,17.60982,R,ugm-3,24.38438,R,ugm-3,57.52605,R,ugm-3,1.16015,R,ugm-3
08-01-2013,24:00,4.41794,R,ugm-3,13.84507,R,ugm-3,20.61914,R,ugm-3,58.62369,R,ugm-3,0.65259,R,ugm-3
09-01-2013,01:00,6.29637,R,ugm-3,12.03090,R,ugm-3,21.68520,R,ugm-3,57.74225,R,ugm-3,1.74023,R,ugm-3
09-01-2013,02:00,6.45353,R,ugm-3,11.71024,R,ugm-3,21.60551,R,ugm-3,58.34096,R,ugm-3,1.25683,R,ugm-3
09-01-2013,03:00,6.53242,R,ugm-3,10.00094,R,ugm-3,20.01718,R,ugm-3,42.15916,R,ugm-3,1.52270,R,ugm-3
09-01-2013,04:00,8.50004,R,ugm-3,9.24742,R,ugm-3,22.28063,R,ugm-3,38.96604,R,ugm-3,1.59521,R,ugm-3
09-01-2013,05:00,7.20129,R,ugm-3,8.73678,R,ugm-3,19.77860,R,ugm-3,37.81852,R,ugm-3,1.23266,R,ugm-3
09-01-2013,06:00,7.24089,R,ugm-3,8.79559,R,ugm-3,19.89813,R,ugm-3,48.29594,R,ugm-3,1.23266,R,ugm-3
09-01-2013,07:00,6.41424,R,ugm-3,8.51397,R,ugm-3,18.34900,R,ugm-3,38.31744,R,ugm-3,1.45019,R,ugm-3
09-01-2013,08:00,5.70609,R,ugm-3,8.40783,R,ugm-3,17.15704,R,ugm-3,37.31959,R,ugm-3,1.37768,R,ugm-3
09-01-2013,09:00,5.11580,R,ugm-3,10.02819,R,ugm-3,17.87231,R,ugm-3,44.90325,R,ugm-3,1.37768,R,ugm-3
09-01-2013,10:00,4.72228,R,ugm-3,9.02318,R,ugm-3,16.26390,R,ugm-3,54.78197,R,ugm-3,1.08764,R,ugm-3
09-01-2013,11:00,4.99793,R,ugm-3,8.83814,R,ugm-3,16.50153,R,ugm-3,46.25035,R,ugm-3,0.94262,R,ugm-3
09-01-2013,12:00,3.97452,R,ugm-3,16.18644,R,ugm-3,22.28063,R,ugm-3,61.61724,R,ugm-3,1.81274,R,ugm-3
09-01-2013,13:00,5.23429,R,ugm-3,13.65908,R,ugm-3,21.68488,R,ugm-3,55.87960,R,ugm-3,0.29004,R,ugm-3
09-01-2013,14:00,3.46313,R,ugm-3,8.98779,R,ugm-3,14.29785,R,ugm-3,60.27014,R,ugm-3,1.81274,R,ugm-3
09-01-2013,15:00,4.64401,R,ugm-3,16.11281,R,ugm-3,23.23353,R,ugm-3,42.20906,R,ugm-3,,,
09-01-2013,16:00,4.87975,R,ugm-3,23.13886,R,ugm-3,30.62104,R,ugm-3,32.82927,R,ugm-3,0.72510,R,ugm-3
09-01-2013,17:00,3.46282,R,ugm-3,23.40470,R,ugm-3,28.71428,R,ugm-3,42.40863,R,ugm-3,1.88525,R,ugm-3
09-01-2013,18:00,3.58100,R,ugm-3,30.43218,R,ugm-3,35.92297,R,ugm-3,36.17206,R,ugm-3,0.94262,R,ugm-3
09-01-2013,19:00,4.32844,R,ugm-3,30.65738,R,ugm-3,37.29423,R,ugm-3,36.77077,R,ugm-3,0.94262,R,ugm-3
09-01-2013,20:00,5.03722,R,ugm-3,26.35329,R,ugm-3,34.07693,R,ugm-3,41.76002,R,ugm-3,1.52270,R,ugm-3
09-01-2013,21:00,4.87944,R,ugm-3,24.45036,R,ugm-3,31.93206,R,ugm-3,40.61250,R,ugm-3,1.01513,R,ugm-3
09-01-2013,22:00,6.21748,R,ugm-3,35.02792,R,ugm-3,44.56125,R,ugm-3,29.98539,R,ugm-3,0.29004,R,ugm-3
09-01-2013,23:00,4.32907,R,ugm-3,35.54094,R,ugm-3,42.17875,R,ugm-3,36.32174,R,ugm-3,0.50757,R,ugm-3
09-01-2013,24:00,5.27327,R,ugm-3,27.06283,R,ugm-3,35.14840,R,ugm-3,35.62325,R,ugm-3,1.37768,R,ugm-3
10-01-2013,01:00,7.16574,R,ugm-3,31.56581,R,ugm-3,42.55313,R,ugm-3,31.93120,R,ugm-3,1.45019,R,ugm-3
10-01-2013,02:00,5.96251,R,ugm-3,34.51935,R,ugm-3,43.66174,R,ugm-3,32.86253,R,ugm-3,1.54687,R,ugm-3
10-01-2013,03:00,6.31570,R,ugm-3,37.50460,R,ugm-3,47.18855,R,ugm-3,29.68604,R,ugm-3,1.45019,R,ugm-3
10-01-2013,04:00,5.84485,R,ugm-3,36.85913,R,ugm-3,45.82111,R,ugm-3,30.73378,R,ugm-3,1.66772,R,ugm-3
10-01-2013,05:00,4.82518,R,ugm-3,29.68678,R,ugm-3,37.08529,R,ugm-3,36.57120,R,ugm-3,1.66772,R,ugm-3
10-01-2013,06:00,5.45288,R,ugm-3,23.55339,R,ugm-3,31.91437,R,ugm-3,33.37808,R,ugm-3,1.45019,R,ugm-3
10-01-2013,07:00,5.54425,R,ugm-3,19.62926,R,ugm-3,28.13033,R,ugm-3,31.93120,R,ugm-3,1.01513,R,ugm-3
10-01-2013,08:00,7.17852,R,ugm-3,23.93876,R,ugm-3,34.94568,R,ugm-3,35.77292,R,ugm-3,1.23266,R,ugm-3
10-01-2013,09:00,6.74727,R,ugm-3,19.90434,R,ugm-3,30.25001,R,ugm-3,33.07873,R,ugm-3,0.87011,R,ugm-3
10-01-2013,10:00,8.31637,R,ugm-3,18.21178,R,ugm-3,30.96338,R,ugm-3,32.13077,R,ugm-3,0.87011,R,ugm-3
10-01-2013,11:00,8.63007,R,ugm-3,16.36431,R,ugm-3,29.59689,R,ugm-3,26.59270,R,ugm-3,0.94262,R,ugm-3
10-01-2013,12:00,7.61009,R,ugm-3,11.74658,R,ugm-3,23.41522,R,ugm-3,25.59485,R,ugm-3,1.52270,R,ugm-3
10-01-2013,13:00,7.96308,R,ugm-3,14.17784,R,ugm-3,26.38772,R,ugm-3,36.17206,R,ugm-3,0.87011,R,ugm-3
10-01-2013,14:00,8.27708,R,ugm-3,15.83550,R,ugm-3,28.52685,R,ugm-3,22.60130,R,ugm-3,2.10278,R,ugm-3
10-01-2013,15:00,5.64902,R,ugm-3,7.68203,R,ugm-3,16.34375,R,ugm-3,25.89421,R,ugm-3,2.53783,R,ugm-3
10-01-2013,16:00,5.60942,R,ugm-3,9.88189,R,ugm-3,18.48288,R,ugm-3,25.19571,R,ugm-3,2.61034,R,ugm-3
10-01-2013,17:00,3.76591,R,ugm-3,10.15394,R,ugm-3,15.92826,R,ugm-3,29.38668,R,ugm-3,2.17529,R,ugm-3
10-01-2013,18:00,3.49151,R,ugm-3,8.73152,R,ugm-3,14.08508,R,ugm-3,31.83142,R,ugm-3,1.74023,R,ugm-3
10-01-2013,19:00,4.11890,R,ugm-3,9.55246,R,ugm-3,15.86801,R,ugm-3,37.41938,R,ugm-3,1.08764,R,ugm-3
10-01-2013,20:00,3.45190,R,ugm-3,7.30623,R,ugm-3,12.59907,R,ugm-3,32.92905,R,ugm-3,0.58008,R,ugm-3
10-01-2013,21:00,3.56977,R,ugm-3,6.59095,R,ugm-3,12.06453,R,ugm-3,32.52991,R,ugm-3,1.01513,R,ugm-3
10-01-2013,22:00,4.19748,R,ugm-3,7.94596,R,ugm-3,14.38200,R,ugm-3,30.68389,R,ugm-3,0.77344,R,ugm-3